[[{"header":{"parameterUnit":"m.s-1","parameterCategory":1,"la1":30.2991,"la2":30.254,"lo1":-89.0895,"lo2":-89.0444,"dy":0.0017,"dx":0.0017,"nx":28,"ny":28,"refTime":"2025-07-31T03:00:00:Z","depth":0,"parameterNumber":2,"parameterNumberName":"U-component_of_WINDS"},"data":[0,0,0,0,0,0,0,0,0,0,0,0,0,0,0,0,0,0,0,0,0,0,0,0,0,0,0,0,0,0,0,0,0,0,0,0,0,0,0,0,0,0,0,0,0,0,0,0,0,0,0,0,0,0,0,0,0,0,2.3501,2.3503,0,2.3639,2.364,2.3642,2.3616,2.3614,2.3611,2.3609,2.3752,2.3758,2.3764,0,0,0,0,0,0,0,0,0,0,0,0,0,2.3218,2.3224,2.3501,2.3503,2.3505,2.3638,2.364,2.3642,2.3617,2.3614,2.3611,2.3608,2.375,2.3757,2.3765,0,0,0,0,0,0,0,0,0,0,0,0,0,2.3347,2.3226,2.3501,2.3508,2.351,2.3638,2.364,2.3643,2.3617,2.3614,2.361,2.3607,2.3748,2.3757,2.3766,2.3896,0,0,2.3793,2.3797,0,0,0,0,0,0,0,0,2.334,2.3358,2.3505,2.3508,2.351,2.3607,2.3593,2.3728,2.3618,2.3577,2.3609,2.3605,2.3707,2.3719,2.3753,2.3902,2.3909,2.3794,2.38,2.3804,2.3806,0,0,0,0,0,0,0,2.3331,2.3352,2.3556,2.3507,2.3511,2.3505,2.3519,2.3618,2.3661,2.358,2.3579,2.3595,2.3707,2.3744,2.3756,2.3911,2.3794,2.3802,2.3808,2.3811,2.4174,2.4178,0,0,0,0,0,0,2.332,2.3344,2.3551,2.356,2.3414,2.3513,2.3529,2.3579,2.366,2.3668,2.3598,2.3593,2.373,2.3746,2.3761,2.3919,2.3804,2.3812,2.3818,2.417,2.4175,2.418,0,0,0,0,0,0,2.3314,2.3338,2.3546,2.3452,2.3478,2.3522,2.3579,2.3584,2.3621,2.3673,2.3681,2.3628,2.3728,2.3748,2.3862,2.3924,2.3816,2.3825,2.4165,2.4172,2.4177,2.4236,0,0,0,0,0,0,2.3306,2.3336,2.3386,2.3453,2.3483,2.3644,2.3583,2.3589,2.3636,2.3632,2.3703,2.3711,2.3727,2.3849,2.3871,2.3934,2.3832,2.416,2.4168,2.4175,2.4229,2.4243,2.4256,0,0,0,0,0,2.3296,2.3397,2.3388,2.3414,2.3545,2.3648,2.3665,2.368,2.3641,2.3692,2.3726,2.3709,2.3913,2.3861,2.3886,2.3952,2.4156,2.4166,2.4175,2.4222,2.424,2.4255,0,0,0,0,0,0,2.3337,2.3406,2.3397,2.3523,2.358,2.3643,2.3707,2.3698,2.3768,2.376,2.3776,2.3793,2.3909,2.3942,2.3882,2.4083,2.4029,2.4044,2.4057,2.4074,2.4088,2.4077,2.3839,0,0,0,0,0,2.336,2.3437,2.3494,2.36,2.3628,2.3663,2.3708,2.3715,2.3774,2.3798,2.384,2.3899,2.3977,2.4027,2.4101,2.4233,2.4249,2.4291,2.4305,2.4316,2.4329,2.4401,2.4421,2.421,2.421,2.421,0,0,2.341,2.3457,2.3505,2.3609,2.3654,2.3733,2.3683,2.377,2.3829,2.3812,2.3922,2.3955,2.4022,2.4145,2.4202,2.4177,2.439,2.4328,2.4336,2.4343,2.4413,2.4433,2.445,2.4217,2.4216,2.4215,0,0,2.3542,2.3585,2.3678,2.3724,2.3791,2.3814,2.3836,2.3901,2.3922,2.4033,2.4022,2.4093,2.4226,2.4274,2.4316,2.4465,2.4453,2.4489,2.456,2.4631,2.4647,2.4662,2.4716,2.4735,2.4502,2.4502,2.4502,0,2.3595,2.3714,2.3727,2.3815,2.3861,2.3848,2.3943,2.3987,2.4076,2.4108,2.4078,2.4245,2.4289,2.4424,2.446,2.4494,2.4521,2.4481,2.4644,2.4659,2.4673,2.4724,2.4745,2.4506,2.4505,2.4505,2.4505,0,2.3777,2.386,2.3927,2.4012,2.4066,2.4157,2.4184,2.4237,2.4239,2.4265,2.4378,2.4431,2.4515,2.4547,2.4551,2.4683,2.4665,2.464,2.4586,2.4697,2.4745,2.4765,2.4511,2.451,2.4509,2.4508,0,0,2.3939,2.403,2.4054,2.4093,2.4167,2.4231,2.4322,2.4404,2.4449,2.4511,2.4587,2.47,2.4677,2.4724,2.4733,2.4794,2.491,2.4761,2.4763,2.4787,2.506,2.5079,2.5102,2.4902,2.4906,2.4909,2.5055,0,2.4077,2.4236,2.425,2.4393,2.447,2.4459,2.4538,2.4592,2.4618,2.4688,2.4717,2.4797,2.476,2.4789,2.4849,2.4883,2.4965,2.4873,2.4974,2.4978,2.4958,2.5127,2.5148,2.5283,2.5074,2.5077,2.5079,0,2.426,2.4327,2.4477,2.454,2.4573,2.4643,2.472,2.4786,2.4848,2.4863,2.4916,2.4916,2.5009,2.4952,2.5082,2.5019,2.5061,2.5084,2.509,2.51,2.5036,2.5143,2.5326,2.5346,2.5109,2.5107,2.5105,0,2.4363,2.4491,2.4597,2.463,2.4707,2.4756,2.4791,2.4848,2.4897,2.4964,2.4995,2.5073,2.5115,2.5175,2.5196,2.5153,2.5326,2.527,2.5341,2.5341,2.5379,2.5376,2.5572,2.5405,2.5405,2.5405,2.5404,0,2.4517,2.461,2.4644,2.471,2.4813,2.4829,2.4931,2.4963,2.5015,2.5087,2.5082,2.5149,2.5173,2.5245,2.5262,2.5367,2.5386,2.5402,2.5405,2.5402,2.5401,2.5431,2.5422,2.541,2.5409,2.5408,2.5407,0,2.465,2.4677,2.4792,2.4855,2.4873,2.4946,2.5,2.5064,2.5089,2.518,2.5202,2.5242,2.5327,2.5354,2.5456,2.5467,2.559,2.5585,2.5569,2.557,2.564,2.5633,2.5862,2.5893,2.5706,2.5708,2.5709,0,2.4746,2.4817,2.4887,2.4935,2.4971,2.5047,2.5096,2.5115,2.5166,2.5242,2.5296,2.538,2.5448,2.5583,2.5622,2.57,2.5697,2.5772,2.5709,2.5704,2.5699,2.5695,2.5702,2.5784,2.5786,2.5788,2.5789,0,2.4915,2.4925,2.4995,2.5071,2.513,2.519,2.5249,2.5288,2.5315,2.5374,2.546,2.5512,2.5616,2.5699,2.5779,2.5815,2.5807,2.5808,2.5829,2.5828,2.5816,2.5823,2.5602,2.5803,2.5802,2.5801,2.58,2.58,2.5033,2.5095,2.5154,2.5234,2.5279,2.5334,2.5397,2.543,2.5501,2.5587,2.5594,2.5687,2.5747,2.5853,2.5892,2.5966,2.5945,2.5975,2.5982,2.599,2.5996,2.5803,2.5981,2.598,2.598,2.598,2.5979,0,2.5202,2.5239,2.5311,2.5393,2.5456,2.5442,2.5506,2.5559,2.5641,2.5697,2.5763,2.5863,2.5943,2.5988,2.6069,2.6119,2.6118,2.614,2.6136,2.6145,2.601,2.5984,2.6139,2.6139,2.6139,2.6139,2.6139,2.6139,2.5297,2.5402,2.5419,2.5547,2.5583,2.5674,2.5712,2.5763,2.5807,2.5918,2.5985,2.6013,2.6065,2.6149,2.6223,2.6234,2.6264,2.6289,2.6298,2.6171,2.6154,2.6139,2.6115,2.6295,2.6295,2.6427,2.6428,2.6429]},{"header":{"parameterUnit":"m.s-1","parameterCategory":1,"la1":30.2991,"la2":30.254,"lo1":-89.0895,"lo2":-89.0444,"dy":0.0017,"dx":0.0017,"nx":28,"ny":28,"refTime":"2025-07-31T03:00:00:Z","depth":0,"parameterNumber":3,"parameterNumberName":"V-component_of_WINDS"},"data":[0,0,0,0,0,0,0,0,0,0,0,0,0,0,0,0,0,0,0,0,0,0,0,0,0,0,0,0,0,0,0,0,0,0,0,0,0,0,0,0,0,0,0,0,0,0,0,0,0,0,0,0,0,0,0,0,0,0,2.4207,2.4208,0,2.4325,2.4326,2.4327,2.4326,2.4325,2.4323,2.4322,2.4436,2.444,2.4445,0,0,0,0,0,0,0,0,0,0,0,0,0,2.3974,2.3979,2.4207,2.4209,2.421,2.4325,2.4326,2.4328,2.4327,2.4325,2.4323,2.4321,2.4434,2.444,2.4445,0,0,0,0,0,0,0,0,0,0,0,0,0,2.4082,2.398,2.4207,2.4223,2.4226,2.4324,2.4326,2.4328,2.4327,2.4325,2.4322,2.432,2.4433,2.4439,2.4446,2.4533,0,0,2.4466,2.4469,0,0,0,0,0,0,0,0,2.4076,2.409,2.4219,2.4222,2.4226,2.4309,2.4286,2.4397,2.4328,2.4288,2.4322,2.4319,2.4395,2.4405,2.4432,2.4539,2.4544,2.4467,2.4471,2.4474,2.4476,0,0,0,0,0,0,0,2.4068,2.4085,2.4253,2.4221,2.4225,2.4223,2.4235,2.4307,2.4353,2.4292,2.4292,2.4306,2.4396,2.4425,2.4434,2.4545,2.4467,2.4473,2.4477,2.4479,2.4729,2.4731,0,0,0,0,0,0,2.4058,2.4079,2.425,2.4257,2.4144,2.4229,2.4243,2.4284,2.4352,2.4361,2.4308,2.4306,2.4415,2.4426,2.4438,2.4545,2.4474,2.448,2.4484,2.4726,2.4729,2.4732,0,0,0,0,0,0,2.4053,2.4074,2.4245,2.4168,2.419,2.4235,2.4281,2.4288,2.4317,2.4365,2.4372,2.433,2.4413,2.4429,2.451,2.4549,2.4483,2.4489,2.4723,2.4727,2.4731,2.476,0,0,0,0,0,0,2.4047,2.4072,2.4107,2.4169,2.4194,2.4317,2.4284,2.4292,2.4329,2.4327,2.4387,2.4395,2.4413,2.45,2.4517,2.4557,2.4494,2.472,2.4725,2.473,2.4756,2.4764,2.4772,0,0,0,0,0,2.4039,2.411,2.4109,2.413,2.424,2.4319,2.4333,2.4355,2.4332,2.4367,2.4398,2.4393,2.4542,2.4508,2.4527,2.457,2.4718,2.4724,2.4729,2.4752,2.4763,2.4772,0,0,0,0,0,0,2.4049,2.4118,2.4118,2.4212,2.426,2.4319,2.4364,2.4365,2.4419,2.4415,2.4436,2.445,2.4531,2.4558,2.452,2.4658,2.4627,2.4637,2.4638,2.4648,2.4656,2.4648,2.45,0,0,0,0,0,2.4063,2.4124,2.418,2.4257,2.4281,2.4318,2.4354,2.4366,2.4416,2.4435,2.4472,2.4519,2.4576,2.4613,2.4669,2.4759,2.4771,2.4798,2.4806,2.4812,2.4821,2.487,2.4882,2.4752,2.4751,2.4751,0,0,2.4091,2.4136,2.4173,2.426,2.4299,2.436,2.4335,2.4401,2.4445,2.4445,2.4525,2.4553,2.4606,2.4692,2.4732,2.4717,2.4859,2.482,2.4824,2.4829,2.4877,2.4889,2.49,2.4756,2.4755,2.4754,0,0,2.4173,2.4214,2.4283,2.4322,2.4382,2.4406,2.4422,2.4481,2.4501,2.4582,2.4582,2.4634,2.4733,2.4771,2.4803,2.4899,2.4896,2.4916,2.4958,2.5006,2.5016,2.5025,2.5059,2.5071,2.4924,2.4924,2.4924,0,2.42,2.4294,2.4317,2.4384,2.4421,2.4425,2.4494,2.453,2.4604,2.4629,2.4612,2.4736,2.4772,2.4867,2.489,2.4916,2.4934,2.491,2.5013,2.5023,2.5031,2.5064,2.5077,2.4926,2.4926,2.4925,2.4925,0,2.4324,2.4389,2.4437,2.4511,2.4554,2.462,2.4652,2.4692,2.47,2.4725,2.4806,2.4849,2.4914,2.4937,2.4944,2.5033,2.5022,2.5009,2.4978,2.5046,2.5077,2.5089,2.4929,2.4928,2.4928,2.4927,0,0,2.4418,2.4504,2.4521,2.4554,2.462,2.4669,2.4735,2.48,2.4834,2.4883,2.4939,2.5022,2.501,2.5046,2.5058,2.51,2.5173,2.5082,2.5083,2.5097,2.5272,2.5282,2.5296,2.5171,2.5173,2.5175,2.5268,0,2.4508,2.4629,2.4651,2.4755,2.4814,2.4818,2.4875,2.492,2.4945,2.4998,2.5024,2.5083,2.5063,2.5085,2.5126,2.5155,2.5208,2.5149,2.5221,2.5223,2.5209,2.5313,2.5324,2.5409,2.528,2.5282,2.5284,0,2.4629,2.4685,2.4796,2.4853,2.4879,2.4931,2.4991,2.5042,2.5092,2.5107,2.5148,2.5154,2.5221,2.5186,2.5277,2.5236,2.5267,2.5285,2.5289,2.5297,2.5258,2.5324,2.5437,2.545,2.5303,2.5301,2.53,0,2.4687,2.4789,2.4869,2.4897,2.4966,2.5002,2.5032,2.508,2.5117,2.5169,2.5193,2.5251,2.5283,2.5327,2.5349,2.5322,2.5438,2.5405,2.5451,2.5451,2.5476,2.5474,2.5596,2.5495,2.5494,2.5494,2.5494,0,2.4786,2.4853,2.4896,2.4945,2.502,2.5043,2.5116,2.5145,2.5188,2.524,2.5246,2.5295,2.532,2.5372,2.5388,2.5461,2.5475,2.5488,2.5492,2.5488,2.5487,2.5509,2.5504,2.5498,2.5497,2.5496,2.5496,0,2.4864,2.4895,2.4982,2.504,2.5056,2.5109,2.5158,2.5204,2.5228,2.5295,2.5312,2.5349,2.5411,2.5437,2.5511,2.5522,2.5606,2.5605,2.559,2.5591,2.5636,2.5631,2.5776,2.5796,2.5681,2.5682,2.5683,0,2.4925,2.4978,2.5042,2.5079,2.5111,2.517,2.5208,2.5232,2.5272,2.5333,2.5371,2.5433,2.5484,2.5582,2.5614,2.5671,2.5672,2.5718,2.568,2.5675,2.5673,2.567,2.5675,2.5726,2.5727,2.5728,2.5729,0,2.5031,2.5044,2.5101,2.5163,2.5209,2.5259,2.5307,2.5336,2.5367,2.541,2.5475,2.5514,2.5591,2.5652,2.5711,2.5739,2.5739,2.574,2.5754,2.5751,2.5741,2.5747,2.561,2.5737,2.5736,2.5736,2.5735,2.5735,2.5103,2.515,2.5202,2.5265,2.5304,2.5349,2.5396,2.5426,2.5481,2.5548,2.5557,2.5625,2.5672,2.5752,2.5782,2.5834,2.5822,2.5842,2.5847,2.5852,2.5855,2.5732,2.5845,2.5844,2.5844,2.5844,2.5844,0,2.5209,2.5243,2.5301,2.5369,2.5418,2.5415,2.5468,2.5508,2.5569,2.5614,2.5665,2.5738,2.5797,2.5834,2.5893,2.5927,2.5928,2.5942,2.594,2.5946,2.5862,2.5845,2.594,2.594,2.594,2.594,2.594,2.594,2.527,2.535,2.5369,2.5466,2.5499,2.5568,2.5599,2.5639,2.5675,2.5758,2.5807,2.5832,2.5873,2.5935,2.5988,2.5997,2.6018,2.6033,2.6041,2.5962,2.5952,2.5943,2.5927,2.6037,2.6037,2.6121,2.6122,2.6122]}]]